GFSNE_prec_precacc12_231.txt.gz
Total_Precipitation_Accumulation
0.01 0.00 0.00 0.00 0.00 0.00 0.00 0.00 0.00 0.00 0.00 0.00 0.00 0.00 0.00 0.00 0.00 0.00 0.00 0.00 0.00 0.00 0.00 0.00 0.00 0.01 0.02 0.02 0.02 0.08 0.25 0.47 0.55 0.47 0.47 0.49 0.50 0.64
0.00 0.00 0.00 0.00 0.00 0.00 0.00 0.00 0.00 0.00 0.00 0.00 0.00 0.00 0.00 0.00 0.00 0.00 0.00 0.00 0.00 0.00 0.00 0.00 0.00 0.01 0.01 0.01 0.02 0.04 0.24 0.27 0.35 0.34 0.33 0.37 0.37 0.39
0.00 0.00 0.00 0.00 0.00 0.00 0.00 0.00 0.00 0.00 0.00 0.00 0.00 0.00 0.00 0.00 0.00 0.00 0.00 0.00 0.00 0.00 0.00 0.00 0.00 0.01 0.01 0.02 0.02 0.04 0.13 0.23 0.30 0.34 0.27 0.30 0.36 0.30
0.00 0.00 0.00 0.00 0.00 0.00 0.00 0.00 0.00 0.00 0.01 0.00 0.00 0.00 0.00 0.00 0.00 0.00 0.00 0.00 0.00 0.00 0.00 0.00 0.01 0.02 0.04 0.03 0.02 0.01 0.11 0.25 0.21 0.21 0.34 0.28 0.27 0.34
0.00 0.00 0.00 0.00 0.00 0.00 0.00 0.00 0.00 0.00 0.00 0.00 0.00 0.00 0.00 0.00 0.00 0.00 0.00 0.00 0.00 0.00 0.00 0.01 0.01 0.01 0.02 0.01 0.01 0.02 0.04 0.18 0.26 0.18 0.24 0.35 0.32 0.36
0.00 0.00 0.00 0.00 0.00 0.00 0.00 0.00 0.00 0.00 0.00 0.00 0.00 0.00 0.00 0.00 0.00 0.00 0.00 0.00 0.00 0.00 0.00 0.00 0.01 0.01 0.01 0.01 0.03 0.07 0.20 0.16 0.22 0.25 0.23 0.40 0.44 0.40
0.00 0.00 0.00 0.00 0.00 0.00 0.00 0.00 0.00 0.00 0.00 0.00 0.00 0.00 0.00 0.00 0.00 0.00 0.00 0.00 0.00 0.00 0.02 0.03 0.02 0.01 0.00 0.01 0.02 0.06 0.22 0.26 0.23 0.33 0.37 0.39 0.57 0.62
0.00 0.00 0.00 0.00 0.00 0.00 0.01 0.01 0.00 0.00 0.00 0.01 0.01 0.01 0.00 0.00 0.01 0.02 0.02 0.01 0.01 0.01 0.04 0.03 0.03 0.01 0.01 0.01 0.02 0.05 0.18 0.32 0.26 0.33 0.51 0.60 0.66 0.86
0.00 0.00 0.00 0.00 0.00 0.00 0.00 0.01 0.00 0.01 0.02 0.03 0.02 0.00 0.02 0.01 0.06 0.03 0.01 0.02 0.02 0.01 0.02 0.04 0.03 0.04 0.04 0.05 0.08 0.10 0.14 0.43 0.50 0.40 0.58 0.83 0.86 0.94
0.00 0.00 0.00 0.00 0.00 0.00 0.00 0.00 0.00 0.00 0.01 0.02 0.01 0.01 0.02 0.02 0.04 0.02 0.02 0.03 0.02 0.03 0.04 0.05 0.05 0.06 0.09 0.15 0.19 0.19 0.23 0.37 0.66 0.65 0.68 0.84 0.93 0.84
0.00 0.00 0.00 0.00 0.00 0.00 0.00 0.00 0.00 0.00 0.01 0.03 0.02 0.03 0.03 0.03 0.02 0.01 0.01 0.02 0.03 0.03 0.02 0.03 0.07 0.09 0.13 0.28 0.48 0.48 0.53 0.51 0.78 0.83 0.88 0.95 1.02 1.14
0.00 0.00 0.00 0.00 0.00 0.00 0.00 0.00 0.00 0.00 0.00 0.00 0.01 0.01 0.02 0.03 0.05 0.03 0.02 0.03 0.03 0.02 0.02 0.04 0.08 0.08 0.14 0.27 0.49 0.66 0.83 1.11 0.92 0.97 0.94 0.89 0.98 1.04
0.00 0.00 0.00 0.00 0.00 0.00 0.00 0.00 0.00 0.00 0.01 0.00 0.00 0.00 0.00 0.00 0.01 0.02 0.01 0.02 0.03 0.03 0.02 0.04 0.04 0.01 0.02 0.18 0.47 0.74 0.80 1.01 1.12 1.19 1.10 0.90 0.67 0.59
0.00 0.00 0.00 0.00 0.00 0.00 0.00 0.00 0.01 0.01 0.00 0.00 0.00 0.00 0.00 0.01 0.01 0.02 0.01 0.01 0.02 0.03 0.03 0.05 0.10 0.06 0.04 0.09 0.29 0.43 0.45 0.53 0.67 0.88 0.99 0.86 0.80 0.60
0.00 0.00 0.00 0.00 0.00 0.00 0.00 0.01 0.01 0.00 0.00 0.00 0.01 0.01 0.01 0.01 0.00 0.00 0.01 0.01 0.01 0.02 0.01 0.01 0.04 0.07 0.07 0.04 0.11 0.21 0.26 0.49 0.63 0.68 0.66 0.58 0.59 0.46
0.00 0.00 0.00 0.00 0.00 0.00 0.00 0.01 0.00 0.00 0.00 0.00 0.01 0.01 0.01 0.01 0.01 0.01 0.01 0.01 0.01 0.02 0.03 0.03 0.04 0.02 0.06 0.10 0.09 0.19 0.19 0.29 0.59 0.63 0.48 0.50 0.44 0.31
0.00 0.00 0.00 0.00 0.00 0.00 0.00 0.00 0.00 0.00 0.00 0.00 0.00 0.00 0.00 0.00 0.01 0.02 0.03 0.02 0.02 0.03 0.04 0.06 0.07 0.09 0.16 0.19 0.25 0.34 0.35 0.28 0.35 0.44 0.32 0.33 0.34 0.21
0.00 0.00 0.00 0.00 0.00 0.00 0.00 0.00 0.00 0.00 0.00 0.00 0.00 0.00 0.00 0.00 0.00 0.01 0.02 0.03 0.05 0.06 0.06 0.09 0.09 0.10 0.14 0.31 0.34 0.34 0.42 0.42 0.46 0.44 0.34 0.22 0.28 0.18
0.00 0.00 0.00 0.00 0.00 0.00 0.00 0.00 0.00 0.00 0.00 0.00 0.00 0.00 0.00 0.00 0.00 0.00 0.01 0.02 0.04 0.06 0.07 0.09 0.10 0.08 0.09 0.14 0.34 0.35 0.29 0.34 0.31 0.30 0.26 0.22 0.16 0.12
0.00 0.00 0.00 0.00 0.00 0.00 0.00 0.00 0.00 0.00 0.00 0.00 0.00 0.00 0.00 0.00 0.00 0.00 0.01 0.01 0.02 0.03 0.06 0.08 0.10 0.12 0.12 0.14 0.19 0.35 0.28 0.23 0.19 0.18 0.20 0.20 0.17 0.15
0.00 0.01 0.00 0.00 0.00 0.00 0.00 0.00 0.00 0.00 0.00 0.00 0.00 0.00 0.00 0.00 0.00 0.00 0.00 0.01 0.02 0.03 0.05 0.09 0.13 0.11 0.13 0.13 0.18 0.31 0.37 0.28 0.16 0.09 0.10 0.09 0.11 0.18
0.01 0.00 0.00 0.00 0.00 0.00 0.00 0.00 0.00 0.00 0.00 0.00 0.00 0.00 0.00 0.00 0.00 0.00 0.01 0.02 0.03 0.03 0.05 0.11 0.16 0.13 0.14 0.09 0.15 0.21 0.33 0.41 0.35 0.25 0.14 0.07 0.08 0.11
0.00 0.00 0.01 0.01 0.00 0.01 0.00 0.00 0.00 0.00 0.00 0.00 0.00 0.00 0.00 0.00 0.00 0.00 0.01 0.02 0.03 0.05 0.06 0.08 0.11 0.09 0.12 0.10 0.11 0.16 0.20 0.24 0.25 0.23 0.28 0.18 0.08 0.02

GFSNE_prec_precacc12_237.txt.gz
Total_Precipitation_Accumulation
0.04 0.03 0.02 0.01 0.00 0.00 0.00 0.00 0.00 0.00 0.00 0.00 0.00 0.00 0.00 0.00 0.00 0.00 0.00 0.00 0.00 0.00 0.00 0.00 0.00 0.00 0.00 0.01 0.01 0.01 0.01 0.01 0.01 0.03 0.06 0.07 0.12 0.26
0.02 0.03 0.01 0.01 0.00 0.00 0.00 0.00 0.00 0.00 0.00 0.00 0.00 0.00 0.00 0.00 0.00 0.00 0.00 0.00 0.00 0.00 0.00 0.00 0.00 0.00 0.00 0.00 0.00 0.01 0.01 0.01 0.01 0.06 0.11 0.08 0.06 0.09
0.01 0.02 0.01 0.01 0.00 0.00 0.00 0.00 0.00 0.00 0.00 0.00 0.00 0.00 0.00 0.00 0.00 0.00 0.00 0.00 0.00 0.01 0.00 0.00 0.00 0.00 0.00 0.00 0.00 0.00 0.00 0.01 0.01 0.01 0.05 0.14 0.15 0.12
0.02 0.01 0.01 0.01 0.01 0.00 0.00 0.00 0.00 0.00 0.00 0.00 0.00 0.00 0.00 0.00 0.00 0.00 0.00 0.00 0.00 0.00 0.00 0.00 0.00 0.00 0.00 0.00 0.00 0.00 0.01 0.01 0.00 0.00 0.01 0.04 0.09 0.19
0.09 0.06 0.02 0.00 0.00 0.00 0.00 0.00 0.00 0.00 0.00 0.00 0.00 0.00 0.00 0.00 0.00 0.00 0.00 0.00 0.00 0.00 0.00 0.01 0.00 0.00 0.00 0.00 0.00 0.00 0.01 0.01 0.00 0.00 0.02 0.07 0.06 0.13
0.02 0.01 0.00 0.00 0.00 0.00 0.00 0.00 0.00 0.00 0.00 0.00 0.00 0.00 0.00 0.00 0.00 0.00 0.00 0.00 0.00 0.00 0.00 0.00 0.00 0.00 0.00 0.00 0.00 0.01 0.01 0.01 0.01 0.01 0.03 0.17 0.19 0.17
0.00 0.00 0.00 0.00 0.00 0.00 0.00 0.00 0.00 0.00 0.00 0.00 0.00 0.00 0.00 0.00 0.00 0.00 0.00 0.00 0.00 0.00 0.00 0.00 0.00 0.00 0.00 0.00 0.00 0.00 0.01 0.01 0.01 0.00 0.03 0.06 0.20 0.30
0.00 0.00 0.00 0.00 0.00 0.00 0.00 0.00 0.00 0.00 0.00 0.00 0.00 0.00 0.00 0.00 0.01 0.00 0.00 0.00 0.00 0.00 0.00 0.00 0.00 0.00 0.00 0.00 0.01 0.00 0.01 0.00 0.00 0.01 0.13 0.13 0.15 0.42
0.00 0.00 0.00 0.00 0.00 0.00 0.00 0.00 0.00 0.01 0.00 0.01 0.00 0.00 0.00 0.01 0.00 0.00 0.00 0.00 0.01 0.00 0.01 0.00 0.00 0.01 0.01 0.02 0.03 0.01 0.01 0.00 0.01 0.01 0.15 0.31 0.33 0.50
0.00 0.00 0.00 0.00 0.00 0.00 0.00 0.00 0.00 0.00 0.00 0.00 0.00 0.00 0.01 0.01 0.01 0.01 0.01 0.00 0.00 0.01 0.00 0.01 0.00 0.00 0.01 0.02 0.03 0.02 0.00 0.01 0.03 0.05 0.14 0.33 0.46 0.45
0.00 0.00 0.00 0.00 0.00 0.00 0.00 0.00 0.00 0.01 0.00 0.00 0.01 0.02 0.02 0.02 0.01 0.00 0.00 0.00 0.00 0.01 0.00 0.00 0.01 0.00 0.01 0.01 0.02 0.06 0.09 0.11 0.25 0.27 0.34 0.46 0.59 0.78
0.00 0.00 0.00 0.00 0.00 0.00 0.00 0.00 0.00 0.01 0.01 0.01 0.01 0.01 0.02 0.02 0.03 0.01 0.00 0.01 0.01 0.01 0.00 0.00 0.00 0.01 0.01 0.02 0.03 0.04 0.17 0.41 0.34 0.51 0.52 0.52 0.70 0.94
0.00 0.00 0.00 0.00 0.00 0.00 0.00 0.00 0.01 0.01 0.01 0.01 0.01 0.01 0.01 0.01 0.01 0.01 0.00 0.01 0.01 0.01 0.01 0.01 0.00 0.00 0.00 0.02 0.07 0.12 0.27 0.39 0.41 0.62 0.79 0.79 0.70 0.68
0.00 0.00 0.00 0.00 0.00 0.00 0.00 0.00 0.00 0.01 0.00 0.01 0.01 0.01 0.00 0.00 0.01 0.01 0.01 0.01 0.01 0.01 0.00 0.01 0.01 0.01 0.01 0.01 0.06 0.07 0.13 0.29 0.48 0.71 0.90 0.88 0.98 0.96
0.00 0.00 0.00 0.00 0.00 0.00 0.00 0.00 0.00 0.00 0.00 0.00 0.00 0.01 0.00 0.00 0.00 0.00 0.00 0.00 0.00 0.00 0.00 0.00 0.01 0.02 0.02 0.01 0.03 0.09 0.14 0.32 0.51 0.65 0.76 0.91 1.06 1.12
0.00 0.00 0.00 0.00 0.00 0.00 0.00 0.00 0.01 0.00 0.00 0.00 0.00 0.00 0.00 0.00 0.00 0.00 0.00 0.00 0.00 0.00 0.00 0.00 0.00 0.01 0.04 0.05 0.05 0.09 0.12 0.24 0.61 0.75 0.78 1.01 1.08 1.14
0.00 0.00 0.01 0.01 0.01 0.00 0.00 0.00 0.00 0.00 0.00 0.00 0.00 0.00 0.00 0.00 0.00 0.00 0.00 0.00 0.00 0.00 0.01 0.02 0.03 0.03 0.07 0.11 0.13 0.16 0.18 0.21 0.43 0.67 0.59 0.68 0.94 0.96
0.06 0.07 0.07 0.05 0.02 0.00 0.00 0.00 0.00 0.00 0.00 0.00 0.00 0.00 0.00 0.00 0.00 0.00 0.00 0.00 0.00 0.00 0.01 0.03 0.04 0.05 0.08 0.15 0.23 0.27 0.31 0.35 0.45 0.53 0.53 0.30 0.36 0.38
0.24 0.16 0.06 0.02 0.00 0.00 0.00 0.00 0.00 0.00 0.00 0.00 0.00 0.00 0.00 0.00 0.00 0.00 0.00 0.00 0.00 0.00 0.00 0.01 0.02 0.04 0.07 0.12 0.22 0.30 0.31 0.39 0.40 0.44 0.46 0.39 0.30 0.30
0.06 0.04 0.01 0.00 0.00 0.00 0.00 0.00 0.00 0.00 0.00 0.00 0.00 0.00 0.00 0.00 0.00 0.00 0.00 0.00 0.00 0.00 0.00 0.01 0.01 0.04 0.07 0.12 0.19 0.36 0.35 0.34 0.34 0.36 0.35 0.30 0.24 0.18
0.03 0.01 0.00 0.00 0.00 0.00 0.00 0.00 0.01 0.01 0.01 0.00 0.00 0.00 0.00 0.00 0.00 0.00 0.00 0.00 0.00 0.00 0.00 0.02 0.05 0.04 0.07 0.08 0.14 0.27 0.35 0.35 0.31 0.25 0.23 0.17 0.18 0.20
0.01 0.00 0.00 0.00 0.00 0.01 0.01 0.01 0.01 0.01 0.00 0.00 0.01 0.00 0.00 0.00 0.00 0.00 0.00 0.00 0.00 0.00 0.01 0.04 0.06 0.06 0.08 0.06 0.13 0.20 0.30 0.37 0.35 0.29 0.22 0.14 0.13 0.15
0.01 0.00 0.00 0.01 0.00 0.01 0.01 0.01 0.00 0.00 0.00 0.00 0.00 0.00 0.00 0.00 0.00 0.00 0.00 0.00 0.00 0.00 0.01 0.02 0.04 0.04 0.08 0.07 0.09 0.15 0.20 0.24 0.23 0.18 0.26 0.17 0.08 0.06

GFSNE_prec_precacc12_240.txt.gz
Total_Precipitation_Accumulation
0.04 0.03 0.02 0.02 0.02 0.01 0.00 0.01 0.00 0.00 0.00 0.00 0.00 0.00 0.00 0.00 0.00 0.00 0.00 0.00 0.00 0.00 0.00 0.00 0.00 0.00 0.00 0.01 0.01 0.01 0.01 0.01 0.02 0.02 0.02 0.02 0.02 0.03
0.02 0.03 0.02 0.02 0.03 0.03 0.01 0.01 0.00 0.00 0.00 0.00 0.00 0.00 0.00 0.00 0.00 0.00 0.00 0.00 0.00 0.00 0.00 0.00 0.00 0.00 0.00 0.00 0.00 0.00 0.00 0.01 0.01 0.02 0.02 0.03 0.05 0.06
0.02 0.02 0.01 0.01 0.01 0.04 0.01 0.01 0.01 0.00 0.00 0.00 0.00 0.00 0.00 0.00 0.00 0.00 0.00 0.00 0.00 0.00 0.00 0.00 0.00 0.00 0.00 0.00 0.00 0.00 0.00 0.01 0.01 0.02 0.01 0.06 0.11 0.10
0.08 0.08 0.04 0.03 0.02 0.00 0.00 0.00 0.00 0.00 0.00 0.00 0.00 0.00 0.00 0.00 0.00 0.00 0.00 0.00 0.00 0.00 0.00 0.00 0.00 0.00 0.00 0.00 0.00 0.00 0.00 0.01 0.01 0.01 0.01 0.01 0.05 0.17
0.20 0.20 0.13 0.06 0.01 0.00 0.00 0.00 0.00 0.00 0.00 0.00 0.00 0.00 0.00 0.00 0.00 0.00 0.00 0.00 0.00 0.00 0.00 0.00 0.00 0.00 0.00 0.00 0.00 0.00 0.00 0.01 0.00 0.00 0.00 0.01 0.01 0.05
0.18 0.15 0.11 0.07 0.03 0.00 0.00 0.00 0.00 0.00 0.00 0.00 0.00 0.00 0.00 0.00 0.00 0.00 0.00 0.00 0.00 0.00 0.00 0.00 0.00 0.00 0.00 0.00 0.00 0.01 0.00 0.01 0.01 0.00 0.01 0.01 0.01 0.01
0.11 0.09 0.08 0.03 0.01 0.00 0.00 0.00 0.00 0.00 0.00 0.00 0.00 0.00 0.00 0.00 0.00 0.00 0.00 0.00 0.00 0.00 0.00 0.00 0.00 0.00 0.00 0.00 0.00 0.00 0.00 0.00 0.00 0.01 0.01 0.01 0.03 0.04
0.08 0.06 0.05 0.03 0.02 0.01 0.00 0.00 0.00 0.00 0.00 0.00 0.00 0.00 0.00 0.00 0.00 0.00 0.00 0.00 0.00 0.00 0.01 0.00 0.00 0.00 0.00 0.00 0.00 0.00 0.00 0.00 0.00 0.01 0.01 0.02 0.09 0.24
0.04 0.02 0.03 0.02 0.01 0.00 0.00 0.00 0.00 0.00 0.00 0.00 0.00 0.00 0.00 0.00 0.00 0.00 0.00 0.00 0.00 0.00 0.01 0.00 0.00 0.00 0.00 0.01 0.02 0.01 0.00 0.00 0.00 0.00 0.01 0.01 0.08 0.26
0.05 0.05 0.02 0.01 0.00 0.00 0.00 0.00 0.00 0.00 0.00 0.00 0.00 0.00 0.00 0.00 0.00 0.00 0.00 0.00 0.00 0.00 0.00 0.00 0.00 0.00 0.00 0.00 0.01 0.01 0.00 0.00 0.00 0.00 0.01 0.04 0.16 0.25
0.04 0.02 0.01 0.00 0.00 0.00 0.00 0.00 0.00 0.01 0.00 0.00 0.00 0.00 0.00 0.00 0.00 0.00 0.00 0.00 0.00 0.01 0.00 0.00 0.00 0.00 0.00 0.00 0.00 0.02 0.01 0.02 0.02 0.02 0.03 0.14 0.23 0.35
0.03 0.01 0.00 0.00 0.00 0.00 0.00 0.00 0.00 0.01 0.01 0.01 0.01 0.01 0.01 0.01 0.01 0.01 0.00 0.00 0.00 0.00 0.00 0.00 0.00 0.00 0.01 0.01 0.01 0.01 0.01 0.11 0.12 0.20 0.16 0.21 0.35 0.52
0.03 0.01 0.00 0.01 0.01 0.00 0.00 0.00 0.01 0.01 0.01 0.01 0.01 0.01 0.01 0.01 0.01 0.01 0.01 0.00 0.00 0.00 0.01 0.01 0.00 0.00 0.01 0.01 0.03 0.05 0.08 0.09 0.11 0.25 0.43 0.51 0.51 0.48
0.06 0.04 0.03 0.03 0.01 0.00 0.00 0.00 0.00 0.00 0.00 0.01 0.01 0.01 0.00 0.00 0.01 0.01 0.01 0.01 0.01 0.01 0.00 0.01 0.01 0.01 0.01 0.01 0.02 0.01 0.04 0.10 0.17 0.27 0.50 0.65 0.75 0.83
0.16 0.19 0.18 0.08 0.03 0.00 0.00 0.00 0.00 0.01 0.01 0.00 0.00 0.00 0.00 0.00 0.00 0.00 0.00 0.00 0.00 0.00 0.00 0.00 0.01 0.01 0.01 0.01 0.02 0.02 0.04 0.16 0.27 0.39 0.55 0.80 0.98 1.14
0.28 0.21 0.09 0.02 0.00 0.00 0.00 0.01 0.02 0.02 0.01 0.00 0.00 0.00 0.00 0.00 0.00 0.00 0.00 0.00 0.00 0.00 0.00 0.00 0.00 0.01 0.02 0.02 0.02 0.05 0.05 0.16 0.46 0.60 0.74 1.01 1.16 1.30
0.06 0.04 0.02 0.02 0.02 0.04 0.06 0.07 0.03 0.01 0.00 0.00 0.00 0.00 0.00 0.00 0.00 0.00 0.00 0.00 0.00 0.00 0.00 0.00 0.01 0.02 0.05 0.07 0.08 0.09 0.12 0.16 0.36 0.62 0.65 0.80 1.12 1.32
0.07 0.09 0.13 0.17 0.22 0.25 0.22 0.12 0.03 0.00 0.00 0.00 0.00 0.00 0.00 0.00 0.00 0.00 0.00 0.00 0.00 0.00 0.00 0.00 0.01 0.03 0.07 0.07 0.13 0.17 0.20 0.26 0.38 0.51 0.58 0.36 0.47 0.56
0.40 0.46 0.48 0.44 0.34 0.21 0.09 0.02 0.00 0.00 0.00 0.00 0.00 0.00 0.00 0.00 0.00 0.00 0.00 0.00 0.00 0.00 0.00 0.00 0.00 0.01 0.04 0.08 0.14 0.19 0.24 0.33 0.38 0.46 0.53 0.47 0.39 0.47
0.19 0.22 0.20 0.11 0.04 0.01 0.00 0.00 0.00 0.00 0.00 0.00 0.00 0.00 0.00 0.00 0.00 0.00 0.00 0.00 0.00 0.00 0.00 0.00 0.00 0.01 0.03 0.06 0.14 0.30 0.28 0.32 0.34 0.40 0.44 0.42 0.41 0.36
0.13 0.11 0.05 0.01 0.00 0.00 0.00 0.00 0.01 0.01 0.01 0.00 0.00 0.00 0.00 0.00 0.00 0.00 0.00 0.00 0.00 0.00 0.00 0.01 0.02 0.02 0.02 0.02 0.09 0.21 0.31 0.33 0.31 0.27 0.29 0.24 0.24 0.23
0.05 0.04 0.02 0.01 0.00 0.00 0.00 0.01 0.01 0.00 0.00 0.00 0.01 0.00 0.00 0.00 0.00 0.00 0.00 0.00 0.00 0.00 0.01 0.02 0.03 0.04 0.04 0.03 0.08 0.16 0.25 0.32 0.31 0.27 0.23 0.17 0.16 0.17
0.06 0.04 0.01 0.01 0.00 0.00 0.00 0.00 0.00 0.00 0.00 0.00 0.00 0.00 0.00 0.00 0.00 0.00 0.00 0.00 0.00 0.00 0.00 0.01 0.02 0.01 0.03 0.04 0.06 0.12 0.17 0.21 0.19 0.15 0.29 0.18 0.10 0.09

GFSNE_prec_precacc12_246.txt.gz
Total_Precipitation_Accumulation
0.01 0.01 0.01 0.01 0.02 0.01 0.00 0.03 0.08 0.08 0.11 0.09 0.05 0.05 0.05 0.02 0.00 0.00 0.00 0.00 0.00 0.00 0.00 0.00 0.00 0.00 0.00 0.00 0.00 0.01 0.01 0.01 0.02 0.03 0.03 0.03 0.03 0.03
0.01 0.01 0.01 0.02 0.03 0.04 0.04 0.11 0.28 0.29 0.17 0.06 0.04 0.02 0.01 0.00 0.00 0.00 0.00 0.00 0.00 0.00 0.00 0.00 0.00 0.00 0.00 0.00 0.00 0.00 0.00 0.01 0.02 0.03 0.03 0.04 0.04 0.03
0.04 0.03 0.02 0.02 0.04 0.11 0.16 0.26 0.25 0.22 0.17 0.16 0.11 0.03 0.00 0.00 0.00 0.00 0.00 0.00 0.00 0.00 0.00 0.00 0.00 0.00 0.00 0.00 0.00 0.00 0.00 0.00 0.01 0.02 0.03 0.03 0.04 0.04
0.16 0.13 0.12 0.13 0.16 0.16 0.22 0.23 0.20 0.17 0.20 0.19 0.05 0.01 0.01 0.00 0.00 0.00 0.00 0.00 0.00 0.00 0.00 0.00 0.00 0.00 0.00 0.00 0.00 0.00 0.00 0.00 0.01 0.01 0.02 0.02 0.02 0.02
0.21 0.21 0.24 0.22 0.24 0.31 0.28 0.24 0.22 0.15 0.14 0.14 0.02 0.01 0.01 0.02 0.01 0.00 0.00 0.00 0.00 0.00 0.00 0.00 0.00 0.00 0.00 0.00 0.00 0.00 0.00 0.00 0.01 0.01 0.01 0.02 0.02 0.01
0.21 0.21 0.27 0.35 0.42 0.43 0.40 0.34 0.28 0.22 0.17 0.07 0.03 0.01 0.00 0.00 0.00 0.00 0.00 0.00 0.00 0.00 0.00 0.00 0.00 0.00 0.00 0.00 0.00 0.00 0.00 0.00 0.00 0.01 0.01 0.02 0.02 0.02
0.19 0.21 0.25 0.32 0.28 0.31 0.33 0.27 0.20 0.16 0.13 0.08 0.04 0.01 0.00 0.00 0.00 0.00 0.00 0.00 0.00 0.00 0.00 0.00 0.00 0.00 0.00 0.00 0.00 0.00 0.00 0.00 0.00 0.01 0.01 0.02 0.01 0.01
0.16 0.18 0.22 0.23 0.19 0.20 0.21 0.17 0.11 0.09 0.07 0.04 0.02 0.01 0.01 0.00 0.00 0.00 0.00 0.00 0.00 0.00 0.01 0.00 0.00 0.00 0.00 0.00 0.00 0.00 0.00 0.00 0.00 0.01 0.01 0.01 0.01 0.01
0.08 0.08 0.11 0.11 0.15 0.11 0.13 0.11 0.08 0.05 0.03 0.02 0.01 0.01 0.01 0.00 0.00 0.00 0.00 0.00 0.00 0.00 0.00 0.00 0.00 0.00 0.00 0.00 0.00 0.00 0.00 0.00 0.01 0.01 0.01 0.01 0.01 0.01
0.09 0.09 0.09 0.06 0.07 0.07 0.06 0.07 0.06 0.04 0.02 0.01 0.00 0.00 0.00 0.00 0.00 0.00 0.00 0.00 0.00 0.00 0.00 0.00 0.00 0.00 0.00 0.00 0.00 0.00 0.00 0.00 0.00 0.01 0.00 0.01 0.00 0.00
0.09 0.09 0.09 0.06 0.09 0.09 0.05 0.05 0.05 0.04 0.03 0.03 0.01 0.01 0.01 0.00 0.00 0.00 0.00 0.00 0.00 0.00 0.00 0.00 0.00 0.00 0.00 0.00 0.00 0.00 0.00 0.00 0.01 0.00 0.01 0.01 0.01 0.01
0.14 0.14 0.20 0.11 0.19 0.13 0.06 0.05 0.07 0.07 0.03 0.03 0.04 0.04 0.03 0.03 0.01 0.00 0.00 0.00 0.00 0.00 0.00 0.00 0.00 0.00 0.00 0.00 0.00 0.00 0.00 0.00 0.01 0.01 0.02 0.04 0.04 0.01
0.14 0.13 0.15 0.24 0.20 0.16 0.13 0.09 0.13 0.12 0.10 0.08 0.07 0.08 0.09 0.05 0.02 0.01 0.01 0.00 0.00 0.00 0.00 0.00 0.00 0.00 0.01 0.00 0.00 0.00 0.00 0.00 0.00 0.01 0.02 0.06 0.11 0.10
0.16 0.17 0.25 0.35 0.18 0.18 0.17 0.15 0.16 0.14 0.15 0.17 0.22 0.25 0.17 0.07 0.06 0.04 0.01 0.00 0.00 0.00 0.00 0.00 0.01 0.01 0.02 0.01 0.01 0.00 0.00 0.00 0.01 0.01 0.04 0.13 0.16 0.29
0.26 0.45 0.53 0.47 0.41 0.43 0.43 0.47 0.50 0.52 0.52 0.46 0.35 0.20 0.15 0.13 0.04 0.00 0.00 0.00 0.00 0.00 0.00 0.00 0.00 0.01 0.01 0.01 0.01 0.01 0.01 0.01 0.02 0.05 0.10 0.21 0.31 0.40
0.59 0.57 0.51 0.51 0.50 0.49 0.50 0.45 0.43 0.42 0.37 0.25 0.20 0.20 0.16 0.05 0.00 0.00 0.00 0.00 0.00 0.00 0.00 0.00 0.00 0.00 0.01 0.01 0.01 0.02 0.01 0.04 0.06 0.13 0.32 0.45 0.60 0.80
0.52 0.56 0.54 0.50 0.46 0.45 0.45 0.46 0.45 0.41 0.33 0.26 0.20 0.12 0.05 0.01 0.00 0.00 0.00 0.00 0.00 0.00 0.00 0.00 0.00 0.00 0.00 0.01 0.02 0.03 0.02 0.05 0.12 0.22 0.35 0.56 0.92 1.35
0.18 0.20 0.33 0.47 0.57 0.63 0.59 0.53 0.45 0.36 0.27 0.13 0.05 0.02 0.00 0.00 0.00 0.00 0.00 0.00 0.00 0.00 0.00 0.00 0.01 0.04 0.04 0.01 0.03 0.06 0.05 0.09 0.19 0.28 0.38 0.28 0.43 0.65
0.46 0.50 0.57 0.58 0.61 0.58 0.50 0.37 0.26 0.16 0.07 0.02 0.00 0.00 0.00 0.00 0.00 0.00 0.00 0.00 0.00 0.00 0.00 0.00 0.00 0.01 0.02 0.02 0.03 0.07 0.08 0.15 0.21 0.29 0.40 0.42 0.49 0.68
0.22 0.25 0.29 0.28 0.23 0.21 0.21 0.19 0.16 0.12 0.07 0.02 0.00 0.00 0.00 0.00 0.00 0.00 0.00 0.00 0.00 0.00 0.00 0.00 0.00 0.00 0.01 0.01 0.05 0.18 0.11 0.15 0.18 0.27 0.36 0.41 0.51 0.66
0.16 0.19 0.21 0.21 0.22 0.24 0.25 0.23 0.16 0.11 0.06 0.02 0.00 0.00 0.00 0.00 0.00 0.00 0.00 0.00 0.00 0.00 0.00 0.01 0.00 0.01 0.01 0.00 0.02 0.09 0.18 0.16 0.15 0.17 0.21 0.19 0.21 0.25
0.18 0.22 0.21 0.21 0.21 0.20 0.18 0.16 0.13 0.08 0.03 0.01 0.00 0.00 0.00 0.00 0.00 0.00 0.00 0.00 0.00 0.00 0.01 0.02 0.03 0.03 0.01 0.00 0.02 0.06 0.11 0.15 0.15 0.13 0.12 0.11 0.12 0.14
0.42 0.40 0.34 0.28 0.23 0.18 0.13 0.10 0.06 0.03 0.00 0.00 0.00 0.00 0.00 0.00 0.00 0.00 0.00 0.00 0.00 0.00 0.00 0.01 0.01 0.00 0.01 0.01 0.02 0.05 0.07 0.09 0.08 0.06 0.25 0.13 0.08 0.09

GFSNE_prec_precacc12_252.txt.gz
Total_Precipitation_Accumulation
0.14 0.23 0.19 0.14 0.06 0.05 0.07 0.08 0.21 0.16 0.13 0.10 0.08 0.13 0.18 0.16 0.12 0.08 0.04 0.02 0.00 0.00 0.00 0.00 0.00 0.00 0.00 0.00 0.00 0.00 0.00 0.00 0.01 0.01 0.02 0.02 0.02 0.03
0.31 0.23 0.14 0.09 0.07 0.05 0.07 0.18 0.43 0.50 0.29 0.13 0.08 0.09 0.10 0.08 0.07 0.07 0.14 0.23 0.12 0.02 0.00 0.00 0.00 0.00 0.00 0.00 0.00 0.00 0.00 0.00 0.00 0.01 0.02 0.02 0.03 0.03
0.27 0.23 0.15 0.12 0.10 0.14 0.25 0.39 0.41 0.49 0.41 0.32 0.25 0.20 0.18 0.19 0.32 0.56 0.51 0.22 0.05 0.01 0.00 0.00 0.00 0.00 0.00 0.00 0.00 0.00 0.00 0.00 0.00 0.01 0.02 0.02 0.03 0.03
0.35 0.24 0.18 0.27 0.24 0.34 0.31 0.37 0.44 0.51 0.59 0.43 0.39 0.41 0.41 0.50 0.49 0.29 0.13 0.08 0.03 0.00 0.00 0.00 0.00 0.00 0.00 0.00 0.00 0.00 0.00 0.00 0.00 0.01 0.02 0.02 0.02 0.02
0.26 0.21 0.23 0.40 0.31 0.45 0.49 0.47 0.49 0.47 0.47 0.49 0.48 0.48 0.44 0.43 0.35 0.25 0.18 0.10 0.10 0.02 0.01 0.01 0.00 0.00 0.00 0.00 0.00 0.00 0.00 0.00 0.00 0.01 0.02 0.02 0.02 0.01
0.08 0.11 0.27 0.40 0.51 0.63 0.67 0.69 0.68 0.58 0.50 0.43 0.47 0.51 0.42 0.28 0.22 0.18 0.14 0.09 0.02 0.01 0.02 0.01 0.01 0.00 0.00 0.00 0.00 0.00 0.00 0.00 0.00 0.01 0.02 0.02 0.02 0.02
0.10 0.14 0.19 0.33 0.32 0.46 0.48 0.42 0.38 0.33 0.28 0.23 0.21 0.19 0.14 0.15 0.17 0.11 0.06 0.03 0.03 0.03 0.04 0.01 0.00 0.00 0.00 0.00 0.00 0.00 0.00 0.00 0.00 0.01 0.01 0.02 0.02 0.02
0.16 0.26 0.25 0.26 0.22 0.27 0.30 0.28 0.22 0.17 0.13 0.11 0.08 0.07 0.06 0.07 0.10 0.10 0.10 0.12 0.14 0.09 0.05 0.02 0.01 0.01 0.01 0.00 0.00 0.00 0.00 0.00 0.00 0.01 0.01 0.02 0.01 0.01
0.07 0.10 0.13 0.16 0.24 0.17 0.21 0.19 0.16 0.16 0.12 0.08 0.06 0.06 0.07 0.09 0.13 0.16 0.17 0.17 0.12 0.07 0.05 0.05 0.04 0.05 0.06 0.04 0.01 0.00 0.00 0.00 0.01 0.01 0.01 0.01 0.00 0.00
0.04 0.05 0.07 0.07 0.09 0.10 0.10 0.11 0.10 0.11 0.11 0.08 0.04 0.04 0.07 0.08 0.08 0.08 0.07 0.07 0.08 0.09 0.10 0.13 0.19 0.17 0.04 0.00 0.00 0.00 0.00 0.00 0.01 0.01 0.01 0.01 0.00 0.00
0.06 0.07 0.09 0.07 0.14 0.13 0.07 0.06 0.07 0.07 0.14 0.11 0.08 0.07 0.06 0.05 0.04 0.04 0.06 0.10 0.14 0.18 0.18 0.16 0.09 0.02 0.00 0.00 0.00 0.00 0.00 0.00 0.00 0.00 0.01 0.01 0.00 0.01
0.11 0.13 0.24 0.13 0.24 0.22 0.09 0.08 0.12 0.15 0.13 0.16 0.15 0.13 0.10 0.09 0.12 0.11 0.13 0.18 0.24 0.26 0.20 0.11 0.04 0.01 0.00 0.00 0.00 0.00 0.00 0.00 0.01 0.00 0.01 0.01 0.01 0.00
0.11 0.12 0.16 0.30 0.22 0.19 0.15 0.10 0.21 0.23 0.25 0.17 0.16 0.16 0.17 0.20 0.24 0.27 0.34 0.38 0.32 0.22 0.11 0.03 0.01 0.00 0.00 0.00 0.00 0.00 0.00 0.00 0.00 0.00 0.00 0.00 0.01 0.02
0.10 0.14 0.24 0.37 0.19 0.21 0.22 0.23 0.27 0.23 0.18 0.21 0.30 0.41 0.46 0.48 0.48 0.47 0.38 0.24 0.12 0.05 0.01 0.00 0.00 0.01 0.01 0.00 0.00 0.00 0.00 0.00 0.00 0.00 0.00 0.00 0.00 0.02
0.10 0.27 0.37 0.41 0.40 0.46 0.47 0.51 0.55 0.55 0.56 0.61 0.62 0.62 0.56 0.48 0.37 0.26 0.17 0.07 0.02 0.01 0.01 0.00 0.00 0.00 0.00 0.00 0.01 0.01 0.00 0.00 0.00 0.00 0.01 0.02 0.05 0.05
0.31 0.37 0.44 0.51 0.51 0.51 0.53 0.47 0.42 0.43 0.45 0.43 0.40 0.39 0.35 0.30 0.23 0.15 0.07 0.02 0.01 0.01 0.00 0.00 0.00 0.00 0.00 0.00 0.00 0.01 0.01 0.02 0.01 0.02 0.05 0.04 0.07 0.13
0.47 0.52 0.52 0.48 0.45 0.42 0.40 0.40 0.43 0.47 0.45 0.42 0.38 0.31 0.26 0.20 0.14 0.06 0.01 0.00 0.00 0.00 0.00 0.00 0.00 0.00 0.00 0.00 0.01 0.01 0.01 0.02 0.03 0.03 0.05 0.08 0.20 0.45
0.12 0.12 0.21 0.30 0.36 0.39 0.39 0.46 0.51 0.50 0.39 0.28 0.21 0.17 0.15 0.12 0.08 0.04 0.01 0.00 0.00 0.00 0.00 0.00 0.01 0.02 0.01 0.00 0.02 0.01 0.01 0.03 0.06 0.05 0.05 0.04 0.12 0.32
0.07 0.05 0.09 0.15 0.28 0.39 0.47 0.50 0.48 0.39 0.31 0.28 0.24 0.19 0.14 0.11 0.07 0.05 0.01 0.00 0.00 0.00 0.00 0.00 0.00 0.01 0.00 0.01 0.04 0.04 0.02 0.04 0.05 0.04 0.09 0.14 0.26 0.45
0.03 0.04 0.09 0.17 0.20 0.22 0.27 0.32 0.38 0.41 0.36 0.30 0.26 0.22 0.18 0.13 0.08 0.03 0.01 0.00 0.00 0.00 0.00 0.00 0.00 0.00 0.00 0.00 0.03 0.15 0.04 0.03 0.03 0.04 0.07 0.10 0.22 0.41
0.03 0.08 0.16 0.22 0.25 0.28 0.33 0.36 0.35 0.33 0.29 0.26 0.22 0.17 0.13 0.09 0.05 0.02 0.00 0.00 0.00 0.00 0.00 0.01 0.00 0.00 0.00 0.00 0.01 0.05 0.10 0.05 0.02 0.02 0.03 0.02 0.04 0.10
0.14 0.18 0.21 0.23 0.28 0.32 0.35 0.38 0.39 0.34 0.26 0.18 0.14 0.11 0.07 0.03 0.01 0.00 0.00 0.00 0.00 0.00 0.01 0.02 0.01 0.00 0.00 0.00 0.01 0.03 0.05 0.07 0.06 0.03 0.02 0.02 0.02 0.05
0.37 0.38 0.37 0.37 0.35 0.34 0.35 0.40 0.37 0.32 0.25 0.19 0.14 0.09 0.04 0.01 0.00 0.00 0.00 0.00 0.00 0.00 0.00 0.00 0.00 0.00 0.00 0.00 0.01 0.02 0.02 0.03 0.03 0.02 0.14 0.04 0.02 0.04

GFSNE_prec_precacc12_255.txt.gz
Total_Precipitation_Accumulation
0.21 0.36 0.33 0.29 0.27 0.29 0.25 0.18 0.25 0.16 0.13 0.10 0.08 0.14 0.19 0.16 0.12 0.08 0.06 0.05 0.07 0.13 0.20 0.21 0.13 0.03 0.00 0.00 0.00 0.00 0.00 0.00 0.00 0.00 0.01 0.01 0.01 0.02
0.43 0.40 0.35 0.27 0.22 0.16 0.13 0.20 0.40 0.49 0.31 0.15 0.09 0.10 0.10 0.08 0.09 0.10 0.16 0.31 0.32 0.17 0.04 0.01 0.00 0.00 0.00 0.00 0.00 0.00 0.00 0.00 0.00 0.00 0.01 0.01 0.02 0.02
0.64 0.45 0.25 0.23 0.20 0.17 0.19 0.30 0.40 0.52 0.44 0.36 0.29 0.23 0.19 0.20 0.35 0.59 0.55 0.28 0.11 0.05 0.01 0.01 0.01 0.00 0.00 0.00 0.00 0.00 0.00 0.00 0.00 0.00 0.01 0.01 0.02 0.02
0.73 0.48 0.23 0.29 0.21 0.31 0.26 0.31 0.43 0.55 0.62 0.46 0.42 0.42 0.41 0.53 0.53 0.33 0.18 0.14 0.10 0.15 0.16 0.04 0.01 0.00 0.00 0.00 0.00 0.00 0.00 0.00 0.00 0.00 0.01 0.01 0.01 0.01
0.39 0.26 0.20 0.34 0.21 0.38 0.46 0.47 0.49 0.48 0.49 0.51 0.49 0.49 0.44 0.45 0.40 0.31 0.25 0.18 0.19 0.14 0.04 0.02 0.01 0.01 0.00 0.00 0.00 0.00 0.00 0.00 0.00 0.01 0.01 0.02 0.01 0.01
0.12 0.10 0.17 0.19 0.26 0.44 0.56 0.64 0.68 0.61 0.54 0.48 0.50 0.53 0.45 0.31 0.25 0.22 0.18 0.14 0.08 0.05 0.05 0.05 0.07 0.09 0.08 0.04 0.02 0.01 0.01 0.01 0.00 0.01 0.01 0.02 0.01 0.02
0.14 0.10 0.11 0.19 0.20 0.34 0.40 0.36 0.38 0.38 0.34 0.29 0.25 0.22 0.17 0.18 0.18 0.13 0.11 0.11 0.09 0.08 0.13 0.20 0.18 0.09 0.04 0.02 0.04 0.05 0.05 0.02 0.00 0.01 0.01 0.02 0.02 0.01
0.09 0.20 0.17 0.18 0.15 0.21 0.26 0.29 0.27 0.23 0.18 0.16 0.11 0.09 0.07 0.08 0.11 0.13 0.15 0.19 0.25 0.25 0.24 0.16 0.06 0.04 0.06 0.06 0.10 0.09 0.03 0.00 0.00 0.01 0.01 0.02 0.01 0.00
0.04 0.04 0.06 0.10 0.17 0.13 0.18 0.19 0.18 0.19 0.16 0.11 0.08 0.07 0.08 0.10 0.13 0.17 0.18 0.20 0.16 0.11 0.10 0.11 0.09 0.09 0.16 0.19 0.09 0.01 0.00 0.00 0.00 0.01 0.01 0.01 0.01 0.00
0.01 0.02 0.03 0.03 0.05 0.07 0.09 0.10 0.10 0.11 0.13 0.10 0.05 0.04 0.07 0.08 0.08 0.08 0.08 0.09 0.10 0.11 0.11 0.13 0.20 0.21 0.10 0.03 0.01 0.00 0.00 0.00 0.00 0.01 0.01 0.01 0.00 0.00
0.01 0.02 0.03 0.02 0.09 0.10 0.05 0.05 0.06 0.08 0.15 0.13 0.09 0.09 0.08 0.05 0.04 0.05 0.06 0.10 0.14 0.19 0.19 0.18 0.14 0.09 0.04 0.01 0.00 0.00 0.00 0.00 0.00 0.01 0.01 0.01 0.00 0.00
0.01 0.04 0.14 0.06 0.17 0.18 0.08 0.07 0.11 0.14 0.13 0.16 0.16 0.14 0.11 0.10 0.12 0.12 0.13 0.18 0.24 0.29 0.23 0.15 0.09 0.04 0.01 0.00 0.00 0.00 0.00 0.00 0.00 0.00 0.01 0.01 0.01 0.00
0.01 0.03 0.07 0.20 0.15 0.14 0.11 0.07 0.19 0.22 0.23 0.16 0.16 0.17 0.17 0.20 0.24 0.28 0.34 0.39 0.33 0.23 0.14 0.06 0.02 0.01 0.00 0.00 0.00 0.00 0.00 0.00 0.00 0.00 0.00 0.00 0.00 0.01
0.01 0.02 0.10 0.23 0.11 0.13 0.16 0.17 0.22 0.18 0.16 0.21 0.30 0.40 0.45 0.49 0.50 0.49 0.40 0.27 0.15 0.07 0.03 0.01 0.01 0.01 0.00 0.00 0.00 0.00 0.00 0.00 0.00 0.01 0.00 0.00 0.00 0.01
0.01 0.07 0.14 0.14 0.11 0.13 0.19 0.29 0.41 0.49 0.55 0.59 0.58 0.58 0.58 0.52 0.42 0.31 0.21 0.10 0.04 0.03 0.01 0.00 0.00 0.00 0.00 0.00 0.00 0.00 0.00 0.00 0.00 0.00 0.01 0.01 0.02 0.03
0.04 0.06 0.08 0.08 0.12 0.16 0.28 0.38 0.39 0.39 0.38 0.34 0.34 0.37 0.36 0.31 0.24 0.16 0.09 0.04 0.02 0.01 0.00 0.00 0.00 0.00 0.00 0.00 0.00 0.00 0.00 0.01 0.01 0.01 0.01 0.01 0.01 0.05
0.05 0.03 0.05 0.08 0.15 0.23 0.33 0.36 0.34 0.32 0.30 0.31 0.34 0.31 0.27 0.22 0.17 0.11 0.05 0.02 0.01 0.01 0.00 0.00 0.00 0.00 0.00 0.00 0.00 0.01 0.01 0.01 0.02 0.01 0.00 0.01 0.06 0.20
0.04 0.03 0.10 0.20 0.30 0.34 0.31 0.27 0.25 0.30 0.27 0.24 0.20 0.17 0.15 0.13 0.13 0.10 0.03 0.01 0.01 0.01 0.02 0.02 0.01 0.01 0.00 0.00 0.01 0.01 0.01 0.02 0.03 0.02 0.01 0.01 0.05 0.18
0.02 0.00 0.04 0.09 0.18 0.25 0.29 0.37 0.43 0.40 0.34 0.31 0.25 0.20 0.15 0.14 0.11 0.08 0.04 0.02 0.02 0.02 0.02 0.02 0.01 0.00 0.00 0.01 0.04 0.03 0.02 0.02 0.02 0.01 0.02 0.04 0.14 0.30
0.00 0.00 0.02 0.04 0.07 0.11 0.19 0.30 0.42 0.47 0.45 0.39 0.34 0.28 0.23 0.18 0.15 0.10 0.07 0.04 0.03 0.03 0.03 0.02 0.00 0.00 0.00 0.00 0.03 0.12 0.03 0.01 0.00 0.01 0.01 0.02 0.08 0.20
0.00 0.01 0.02 0.05 0.10 0.16 0.25 0.34 0.38 0.41 0.39 0.38 0.36 0.30 0.22 0.15 0.11 0.07 0.03 0.02 0.01 0.02 0.02 0.01 0.00 0.00 0.00 0.00 0.02 0.06 0.09 0.03 0.00 0.00 0.00 0.00 0.01 0.04
0.01 0.03 0.04 0.09 0.16 0.24 0.32 0.38 0.44 0.45 0.42 0.36 0.34 0.30 0.22 0.13 0.06 0.03 0.01 0.01 0.00 0.00 0.01 0.01 0.00 0.00 0.00 0.00 0.01 0.03 0.06 0.06 0.04 0.02 0.01 0.01 0.00 0.03
0.06 0.11 0.16 0.22 0.29 0.31 0.34 0.41 0.42 0.41 0.40 0.37 0.36 0.31 0.21 0.14 0.09 0.03 0.01 0.00 0.01 0.01 0.01 0.01 0.00 0.00 0.00 0.00 0.01 0.02 0.03 0.03 0.03 0.01 0.11 0.03 0.01 0.02

GFSNE_prec_precacc12_261.txt.gz
Total_Precipitation_Accumulation
0.21 0.36 0.33 0.30 0.29 0.31 0.30 0.24 0.28 0.16 0.04 0.02 0.03 0.07 0.14 0.14 0.12 0.10 0.10 0.09 0.16 0.23 0.35 0.38 0.30 0.23 0.25 0.29 0.23 0.11 0.05 0.01 0.00 0.00 0.00 0.00 0.00 0.00
0.34 0.37 0.36 0.28 0.22 0.15 0.14 0.16 0.21 0.26 0.21 0.10 0.05 0.07 0.11 0.10 0.14 0.18 0.23 0.37 0.40 0.26 0.16 0.14 0.14 0.17 0.19 0.15 0.07 0.03 0.01 0.00 0.00 0.00 0.00 0.00 0.00 0.01
0.52 0.38 0.23 0.22 0.19 0.16 0.14 0.18 0.21 0.33 0.32 0.17 0.09 0.13 0.16 0.21 0.36 0.68 0.64 0.31 0.13 0.09 0.08 0.10 0.17 0.18 0.11 0.04 0.01 0.01 0.01 0.01 0.01 0.01 0.00 0.00 0.00 0.00
0.57 0.39 0.21 0.28 0.22 0.20 0.14 0.14 0.23 0.32 0.30 0.17 0.10 0.10 0.16 0.30 0.41 0.39 0.26 0.22 0.16 0.22 0.24 0.19 0.12 0.05 0.04 0.04 0.04 0.03 0.04 0.03 0.02 0.00 0.00 0.00 0.00 0.00
0.26 0.17 0.13 0.26 0.17 0.19 0.20 0.16 0.20 0.26 0.26 0.24 0.15 0.14 0.18 0.27 0.34 0.39 0.36 0.28 0.26 0.21 0.09 0.06 0.04 0.05 0.06 0.06 0.04 0.03 0.02 0.01 0.01 0.01 0.01 0.00 0.00 0.00
0.14 0.13 0.14 0.13 0.05 0.15 0.14 0.19 0.27 0.28 0.22 0.22 0.19 0.17 0.16 0.20 0.25 0.26 0.23 0.20 0.11 0.07 0.10 0.11 0.13 0.18 0.17 0.12 0.07 0.03 0.04 0.05 0.05 0.03 0.01 0.01 0.00 0.00
0.19 0.17 0.19 0.27 0.25 0.26 0.18 0.15 0.18 0.16 0.17 0.16 0.15 0.13 0.13 0.15 0.16 0.19 0.20 0.18 0.14 0.13 0.15 0.23 0.23 0.14 0.09 0.08 0.08 0.10 0.08 0.04 0.02 0.01 0.01 0.01 0.00 0.00
0.06 0.11 0.17 0.25 0.28 0.33 0.32 0.26 0.24 0.20 0.15 0.16 0.13 0.09 0.07 0.10 0.13 0.18 0.22 0.25 0.29 0.28 0.25 0.16 0.08 0.06 0.08 0.10 0.19 0.14 0.05 0.01 0.00 0.00 0.00 0.00 0.00 0.00
0.00 0.00 0.02 0.06 0.12 0.11 0.16 0.15 0.14 0.14 0.12 0.11 0.06 0.05 0.07 0.15 0.20 0.20 0.22 0.24 0.17 0.11 0.09 0.11 0.11 0.12 0.18 0.25 0.18 0.04 0.01 0.00 0.00 0.00 0.00 0.00 0.00 0.00
0.00 0.00 0.00 0.00 0.02 0.02 0.02 0.02 0.02 0.04 0.06 0.05 0.02 0.01 0.03 0.05 0.06 0.09 0.10 0.11 0.10 0.09 0.10 0.16 0.21 0.23 0.13 0.07 0.09 0.02 0.00 0.00 0.00 0.00 0.01 0.00 0.00 0.00
0.00 0.00 0.00 0.00 0.01 0.02 0.01 0.00 0.01 0.02 0.06 0.05 0.03 0.03 0.04 0.04 0.03 0.03 0.03 0.05 0.07 0.12 0.18 0.18 0.16 0.11 0.08 0.05 0.03 0.02 0.00 0.00 0.00 0.00 0.01 0.01 0.00 0.00
0.00 0.00 0.00 0.00 0.01 0.02 0.01 0.00 0.02 0.04 0.04 0.07 0.07 0.06 0.05 0.04 0.05 0.02 0.01 0.05 0.13 0.24 0.22 0.16 0.12 0.09 0.08 0.04 0.02 0.01 0.01 0.00 0.00 0.01 0.01 0.01 0.00 0.00
0.00 0.00 0.00 0.01 0.01 0.01 0.01 0.00 0.02 0.03 0.05 0.03 0.02 0.03 0.04 0.04 0.05 0.05 0.06 0.14 0.24 0.23 0.19 0.11 0.07 0.06 0.04 0.03 0.02 0.01 0.01 0.01 0.01 0.00 0.01 0.01 0.00 0.00
0.00 0.00 0.00 0.00 0.00 0.01 0.01 0.02 0.04 0.04 0.01 0.01 0.01 0.02 0.03 0.05 0.07 0.09 0.13 0.20 0.15 0.08 0.07 0.05 0.02 0.03 0.03 0.03 0.03 0.02 0.01 0.00 0.01 0.01 0.01 0.01 0.00 0.00
0.00 0.00 0.01 0.00 0.00 0.00 0.01 0.01 0.02 0.01 0.01 0.04 0.05 0.08 0.11 0.11 0.11 0.12 0.14 0.09 0.05 0.04 0.02 0.01 0.01 0.01 0.01 0.01 0.01 0.01 0.01 0.01 0.01 0.01 0.01 0.01 0.02 0.02
0.01 0.01 0.02 0.01 0.01 0.01 0.01 0.01 0.00 0.01 0.02 0.01 0.02 0.03 0.05 0.06 0.08 0.09 0.09 0.06 0.04 0.03 0.01 0.00 0.01 0.01 0.00 0.00 0.00 0.00 0.00 0.01 0.01 0.01 0.01 0.02 0.02 0.02
0.00 0.00 0.00 0.00 0.00 0.00 0.00 0.00 0.00 0.02 0.02 0.01 0.02 0.04 0.07 0.09 0.12 0.10 0.07 0.05 0.04 0.03 0.02 0.02 0.02 0.01 0.00 0.00 0.00 0.01 0.01 0.01 0.01 0.01 0.01 0.02 0.03 0.05
0.01 0.00 0.00 0.00 0.00 0.00 0.01 0.00 0.00 0.03 0.01 0.03 0.06 0.10 0.13 0.13 0.14 0.12 0.06 0.04 0.05 0.05 0.05 0.04 0.01 0.01 0.00 0.01 0.01 0.01 0.01 0.02 0.02 0.02 0.01 0.02 0.04 0.06
0.01 0.00 0.00 0.00 0.00 0.00 0.01 0.02 0.03 0.04 0.05 0.09 0.16 0.18 0.19 0.20 0.24 0.17 0.14 0.10 0.10 0.10 0.10 0.08 0.02 0.01 0.01 0.03 0.07 0.03 0.02 0.02 0.02 0.02 0.01 0.02 0.04 0.11
0.00 0.00 0.00 0.00 0.00 0.00 0.01 0.04 0.07 0.09 0.13 0.19 0.26 0.30 0.31 0.30 0.29 0.25 0.22 0.18 0.18 0.20 0.21 0.16 0.08 0.01 0.00 0.01 0.05 0.11 0.02 0.01 0.01 0.02 0.02 0.02 0.04 0.04
0.00 0.00 0.00 0.00 0.00 0.01 0.04 0.07 0.11 0.16 0.18 0.23 0.28 0.33 0.35 0.32 0.33 0.31 0.28 0.26 0.23 0.21 0.18 0.15 0.08 0.01 0.00 0.00 0.03 0.09 0.10 0.03 0.01 0.02 0.01 0.01 0.03 0.03
0.00 0.00 0.00 0.00 0.01 0.03 0.08 0.12 0.19 0.28 0.32 0.32 0.36 0.38 0.39 0.32 0.31 0.31 0.28 0.25 0.21 0.14 0.10 0.10 0.06 0.02 0.01 0.01 0.02 0.05 0.08 0.07 0.03 0.01 0.01 0.01 0.01 0.02
0.00 0.00 0.00 0.00 0.02 0.05 0.10 0.19 0.26 0.30 0.34 0.35 0.39 0.40 0.33 0.32 0.31 0.26 0.24 0.18 0.14 0.13 0.11 0.08 0.04 0.01 0.01 0.01 0.02 0.03 0.04 0.04 0.03 0.01 0.05 0.01 0.00 0.01